Location: ??????
(38.0131°N, 23.7723°E)
Time: 06:41:34
(UTC+00:00)

Cosmos 2322 Rocket - Pass Details

Date: 17 October 2021
Orbit: 832 x 851 km, 71.0° (Epoch: 28 November)

Event Time Altitude Azimuth Distance (km) Brightness Sun altitude
Rises 16:22:30 0° 146° (SE) 3,363 5.0 -8.2°
Reaches altitude 10° 16:26:59 10° 112° (ESE) 2,435 4.1 -9.1°
Enters shadow 16:28:29 11° 96° (E) 2,360 3.9 -9.4°
